EW2109 Weather Reports


Display with metric or nautical units.
time (UTC)temp
F
wind
direction
speed
MPH
gust
MPH
rain 1hr
in
rain 24hr
in
rain mn
in
humidity
%
barometer
mb
20171213010701 26 133 1.0 0.0 0.00 0.00 0.00 92 983.5
20171213005158 26 157 1.0 0.0 0.00 0.00 0.00 92 983.4
20171213003702 26 152 1.0 0.0 0.00 0.00 0.00 92 983.6
20171213002157 27 61 2.0 0.0 0.00 0.00 0.00 92 983.7
20171213000655 27 86 0.0 0.0 0.00 0.00 0.00 93 983.9
20171212235158 27 215 1.0 0.0 0.00 0.00 0.00 93 983.9
20171212233651 27 185 1.0 0.0 0.00 0.00 0.00 93 984.4
20171212232204 25 80 0.0 0.0 0.00 0.00 0.00 93 984.4
20171212230645 25 96 1.0 0.0 0.00 0.00 0.00 93 984.5
20171212225153 25 92 1.0 0.0 0.00 0.00 0.00 93 984.7
20171212223642 25 106 2.0 0.0 0.00 0.00 0.00 93 984.9
20171212222201 24 106 1.0 0.0 0.00 0.00 0.00 92 985.0
20171212220640 24 106 0.0 0.0 0.00 0.00 0.00 93 985.4
20171212215138 24 106 2.0 0.0 0.00 0.00 0.00 92 985.5
20171212213638 23 106 1.0 0.0 0.00 0.00 0.00 92 985.7
20171212212140 23 106 1.0 0.0 0.00 0.00 0.00 92 985.8
20171212210652 24 106 1.0 0.0 0.00 0.00 0.00 91 986.1
20171212205156 25 145 2.0 0.0 0.00 0.00 0.00 93 986.1
20171212203655 24 127 1.0 0.0 0.00 0.00 0.00 93 986.4
20171212202155 23 138 1.0 0.0 0.00 0.00 0.00 93 986.5
20171212200630 21 127 0.0 0.0 0.00 0.00 0.00 92 986.8
20171212195129 22 127 0.0 0.0 0.00 0.00 0.00 92 986.7
20171212193636 22 127 0.0 0.0 0.00 0.00 0.00 92 986.7
20171212192132 23 127 2.0 0.0 0.00 0.00 0.00 92 986.9
20171212190628 23 141 1.0 0.0 0.00 0.00 0.00 92 986.9
20171212185126 23 141 0.0 0.0 0.00 0.00 0.00 92 987.0
20171212183630 22 127 1.0 0.0 0.00 0.00 0.00 93 987.3
20171212182122 20 151 1.0 0.0 0.00 0.00 0.00 93 987.5
20171212180636 19 155 1.0 0.0 0.00 0.00 0.00 93 987.7
20171212175123 17 161 0.0 0.0 0.00 0.00 0.00 91 987.8
20171212173624 17 253 0.0 0.0 0.00 0.00 0.00 90 987.9
20171212172126 18 253 0.0 0.0 0.00 0.00 0.00 90 988.1
20171212170621 18 253 1.0 0.0 0.00 0.00 0.00 91 988.1
20171212165123 18 253 0.0 0.0 0.00 0.00 0.00 91 988.3
20171212163614 18 251 0.0 0.0 0.00 0.00 0.00 91 988.4
20171212162107 19 120 0.0 0.0 0.00 0.00 0.00 92 988.5
20171212160617 18 120 0.0 0.0 0.00 0.00 0.00 92 988.7
20171212155118 17 120 0.0 0.0 0.00 0.00 0.00 90 988.8
20171212153606 18 120 0.0 0.0 0.00 0.00 0.00 91 989.2
20171212152107 18 120 0.0 0.0 0.00 0.00 0.00 91 989.2
20171212150614 19 120 1.0 0.0 0.00 0.00 0.00 92 988.8
20171212145102 19 96 0.0 0.0 0.00 0.00 0.00 92 988.6
20171212143601 20 96 0.0 0.0 0.00 0.00 0.00 92 988.7
20171212142100 20 95 0.0 0.0 0.00 0.00 0.00 92 988.6
20171212140602 20 79 0.0 0.0 0.00 0.00 0.00 92 988.5
20171212135059 21 79 0.0 0.0 0.00 0.00 0.00 92 988.5
20171212133612 21 79 0.0 0.0 0.00 0.00 0.00 92 988.6
20171212132057 20 79 0.0 0.0 0.00 0.00 0.00 92 988.7
20171212130556 20 79 0.0 0.0 0.00 0.00 0.00 92 988.5
20171212125055 20 79 0.0 0.0 0.00 0.00 0.00 92 988.7
20171212123557 21 79 0.0 0.0 0.00 0.00 0.00 92 988.8
20171212122051 21 79 0.0 0.0 0.00 0.00 0.00 92 988.8
20171212120551 20 79 0.0 0.0 0.00 0.00 0.00 92 988.9
20171212115050 20 78 0.0 0.0 0.00 0.00 0.00 92 989.1
20171212113615 20 78 1.0 0.0 0.00 0.00 0.00 92 989.1
20171212112052 20 78 0.0 0.0 0.00 0.00 0.00 92 989.2
20171212110606 20 78 1.0 0.0 0.00 0.00 0.00 92 989.4
20171212105105 19 80 0.0 0.0 0.00 0.00 0.00 92 989.6
20171212103550 19 80 0.0 0.0 0.00 0.00 0.00 92 989.6
20171212102050 18 174 0.0 0.0 0.00 0.00 0.00 92 989.6
20171212100546 17 174 0.0 0.0 0.00 0.00 0.00 91 989.9
20171212095054 16 174 0.0 0.0 0.00 0.00 0.00 90 990.0
20171212093550 14 174 0.0 0.0 0.00 0.00 0.00 89 990.1
20171212092043 13 174 0.0 0.0 0.00 0.00 0.00 88 990.1
20171212090543 11 174 0.0 0.0 0.00 0.00 0.00 89 990.3
20171212085049 10 174 0.0 0.0 0.00 0.00 0.00 88 990.4
20171212083541 9 174 0.0 0.0 0.00 0.00 0.00 87 990.5
20171212082042 10 174 0.0 0.0 0.00 0.00 0.00 86 990.5
20171212080539 10 174 0.0 0.0 0.00 0.00 0.00 86 990.5
20171212075100 10 174 0.0 0.0 0.00 0.00 0.00 87 990.5
20171212073541 11 174 0.0 0.0 0.00 0.00 0.00 87 990.6
20171212072037 10 174 0.0 0.0 0.00 0.00 0.00 87 990.7
20171212070542 10 174 0.0 0.0 0.00 0.00 0.00 87 990.7
20171212065036 11 174 0.0 0.0 0.00 0.00 0.00 87 990.7
20171212063544 10 174 0.0 0.0 0.00 0.00 0.00 87 990.7
20171212062034 10 174 0.0 0.0 0.00 0.00 0.00 87 990.6
20171212060540 11 174 0.0 0.0 0.00 0.00 0.00 87 990.5
20171212055032 11 174 0.0 0.0 0.00 0.00 0.00 87 990.3
20171212053533 11 174 1.0 0.0 0.00 0.00 0.00 88 990.5
20171212052032 12 172 0.0 0.0 0.00 0.00 0.00 88 990.6
20171212050530 11 155 1.0 0.0 0.00 0.00 0.00 89 990.6
20171212045035 11 150 0.0 0.0 0.00 0.00 0.00 88 990.3
20171212043549 11 150 0.0 0.0 0.00 0.00 0.00 87 990.2
20171212042028 11 150 0.0 0.0 0.00 0.00 0.00 87 990.1
20171212040556 11 150 0.0 0.0 0.00 0.00 0.00 88 990.1
20171212035033 11 150 0.0 0.0 0.00 0.00 0.00 87 990.1
20171212033527 12 150 0.0 0.0 0.00 0.00 0.00 88 990.1
20171212032032 13 150 0.0 0.0 0.00 0.00 0.00 89 990.1
20171212030524 13 150 0.0 0.0 0.00 0.00 0.00 88 990.2
20171212025037 14 150 0.0 0.0 0.00 0.00 0.00 89 990.2
20171212023517 15 150 0.0 0.0 0.00 0.00 0.00 89 990.2
20171212022024 16 150 0.0 0.0 0.00 0.00 0.00 89 990.1
20171212020556 17 150 0.0 0.0 0.00 0.00 0.00 90 990.1
20171212015015 18 141 0.0 0.0 0.00 0.00 0.00 91 990.2
20171212013517 19 141 0.0 0.0 0.00 0.00 0.00 92 990.0
20171212012015 20 136 1.0 0.0 0.00 0.00 0.00 92 990.0